Погода в Олекминске

Погода в Олекминске : погода сейчас, прогноз погоды и архив. Всё, что Вы хотите узнать о погоде в Олекминске!

Хотите узнать прогноз погоды в Олекминске? Тогда Вам сюда: Погода в Олекминске

Поиск расширенной информации на нашем сайте:

Другие новости

Новости СМИ2

Главная страница сайта

Новости сайта

02.10.2013

Напоминаем, что на нашем новом сайте вы можете получить высокодетализированные прогнозы погоды по пунктам России, СНГ и мира (включающие важные для авиации метеовеличины, такие как направление и скорость ветра, видимость, явления погоды, количество и форма облачности, нижняя и верхняя граница облачности), а также ознакомиться с разнообразными материалами по авиационной метеорологии и подборкой полезных ссылок на эту тему.

Сайт Метеоцентр.Азия посвящён разработке технологий оптимизации авиаметеорологического обслуживания, включая проектирование и перспективное создание нескольких автоматизированных авиаметеорологических систем:
- система выпуска высокодетальных прогностических карт явлений погоды для нижнего воздушного пространства по России и ближнему зарубежью;
- система верификации прогнозов TAF (выпускаемых синоптиками официальных АМСГ РФ и ближнего зарубежья) и AUTOTAF (выпускаемых сайтом Метеоцентр.Азия) - выявление ошибок, онлайн-сопоставление с фактической погодой METAR, автоматическое внесение коррективов в прогнозы при резком отклонении фактической погоды от прогноза, подсчёт оправдываемости прогнозов по элементам и в целом;
- система обработки, анализа и отображения авиаметеорологической информации для применения провайдерами метеорологической информации.

Рекомендуем: ремонт iphone 3gs

Погода в Олекминске - сегодня

Время (UTC), дата Ветер
(°,м/с) 
Видим.   Явления Облачность Т
(°С)
Тd
(°С)
f(%) Тe
(°С)
Pmin
(гПа)
dP
(гПа)
Po
(мм)
O2
(г/м3)
Тmin Tmax R s Состояние
почвы
21 19.06.17 260 (З) 20000 м    10/0 средняя, верхняя 
[Ac trans|Ci fib]
+13.4 +11.9 91 +19  1012.2  0.7  739  281           
00 20.06.17 250 (З) 20000 м    10/3 1000 м средняя, верхняя 
[Cu hum|Ac trans|Ci fib]
+18.5 +13 70 +25  1012.1  0.5  739  276  +11.1        влажная 
03 20.06.17 260 (З) 20000 м    10/4 1000 м средняя, верхняя 
[Cu hum|Ac trans|Ci fib]
+23.6 +12.9 51 +29  1010.7  -1  738  271           
06 20.06.17 250 (З) 20000 м    10/4 1000 м средняя, верхняя 
[Cu hum|Ac trans|Ci fib]
+26.5 +10.3 36 +28  1009.3  -1.3  737  269           
09 20.06.17 250 (З) 20000 м    10/3 1000 м средняя, верхняя 
[Cu hum|Ac trans|Ci fib]
+28 +9.8 32 +29  1007.6  -1.4  736  267           
12 20.06.17 тихо ()   20000 м    8/0 средняя, верхняя 
[Ac trans|Ci fib]
+24.5 +17.3 64 +38  1007.2  -0.5  736  268    +28.4       
15 20.06.17 тихо ()   20000 м    10/0 средняя, верхняя 
[Ac trans|Ci fib]
+18.5 +12.6 68 +24  1008  0.2  736  275           
18 20.06.17 240 (ЮЗ) 20000 м    10/0 средняя, верхняя 
[Ac trans|Ci fib]
+16.7 +13.3 80 +24  1008.4  0.3  736  277           
21 20.06.17 230 (ЮЗ) 20000 м    10/0 средняя, верхняя 
[Ac trans|Ci fib]
+16.8 +13.4 80 +23  1008.7  0.3  737  277           
00 21.06.17 240 (ЮЗ) 20000 м    6/0 верхняя 
[Ci fib]
+22.4 +14.4 61 +31  1008.3  0.1  737  271  +14.9        сухая 
03 21.06.17 220 (ЮЗ) 20000 м    4/3 1000 м верхняя 
[Cu hum|Ci fib]
+28.2 +13.4 40 +35  1007  -1  736  266           
06 21.06.17 230 (ЮЗ) 20000 м    5/5 1000 м 
[Cu hum]
+30.5 +11.2 30 +34  1004.9  -1.7  735  264           
09 21.06.17 240 (ЮЗ) 20000 м    5/5 1000 м 
[Cu hum]
+31.3 +11.2 29 +35  1003.2  -1.7  733  263           
12 21.06.17 240 (ЮЗ) 20000 м    8/0 верхняя 
[Ci fib]
+26.4 +14.2 47 +34  1003.6  733  267    +31.7       
15 21.06.17 250 (З) 20000 м    8/0 верхняя 
[Ci fib]
+18.8 +11.8 64 +24  1004.9  0.6  734  274           
18 21.06.17 250 (З) 20000 м    8/0 верхняя 
[Ci fib]
+17 +12.3 74 +23  1005.2  0.2  734  276           
21 21.06.17 240 (ЮЗ) 20000 м    8/0 верхняя 
[Ci fib]
+16.5 +12.5 77 +22  1005.9  0.7  734  277           
00 22.06.17 240 (ЮЗ) 20000 м    8/0 верхняя 
[Ci fib]
+22.5 +14.2 59 +30  1005.4  734  271  +15.5        сухая 
03 22.06.17 240 (ЮЗ) 20000 м    8/4 1000 м верхняя 
[Cu hum|Ci fib]
+30.3 +14.2 37 +38  1004.1  -0.6  742  266           
06 22.06.17 240 (ЮЗ) 20000 м    8/3 1000 м верхняя 
[Sc|Ci fib]
+33.3 +10.9 25 +36  1002.1  -1.6  733  261           
09 22.06.17 240 (ЮЗ) 20000 м    10/0 верхняя 
[Ci fib]
+33.3 +13.1 29 +39  1001.1  -1.1  732  260           
12 22.06.17 тихо ()   20000 м    10/0 верхняя 
[Ci fib]
+28.4 +19.2 57 +46  1000.8  -0.6  732  262    +34       
15 22.06.17 240 (ЮЗ) 20000 м    10/0 верхняя 
[Ci fib]
+19.4 +11.8 61 +24  1002.3  0.6  732  273           
18 22.06.17 тихо ()   20000 м    10/0 верхняя 
[Ci fib]
+14.6 +12 84 +19  1002.9  0.2  732  278           
21 22.06.17 060 (СВ) 20000 м    10/0 верхняя 
[Ci fib]
+15 +12.8 87 +22  1003.4  0.5  733  277           
Время (UTC), дата Ветер
(°,м/с) 
Видим.   Явления Облачность Т
(°С)
Тd
(°С)
f(%) Тe
(°С)
Pmin
(гПа)
dP
(гПа)
Po
(мм)
O2
(г/м3)
Тmin Tmax R s Состояние
почвы

Для получения пояснительной информации подведите курсор к названию столбца.

ПОГОДА в Олекминске - архив

Всё, что Вы хотите узнать о погоде в Олекминске - удобно и подробно!

Выберите нужную дату (начиная с 1 января 2015* года) и нажмите кнопку "Найти".
Будут отображены архивные сводки погоды по пункту Олекминск, начиная с указанной даты.


Отображать данные в формате CSV (для использования в таблицах Excel)


Внимание! Наш архив погоды предназначен исключительно для личного некоммерческого использования в познавательных целях. Если Вам необходимы официальные справки о состоянии погоды (для производственных, юридических, коммерческих и т.п. целей), обращайтесь в органы Росгидромета.

*Примечание: данная дата относится к архиву по метеостанциям СССР (Россия, СНГ, Балтия).
Архив по метеостанциям Зарубежной Европы и Азии (кроме Китая) хранится 10 дней, по другим регионам земного шара (Китай, Африка, Америка, Австралия, Океания) - 1 день.

Олекминск - район местоположения метеостанции


Название, широта, долгота, высота метеостанции:
Олекминск 60.4°ш. 120.4°д. 226 м над ур. моря [Российская Федерация]

Дополнительная информация

В oтличие oт бoльшинства пoгoдных сайтoв мы публикуем пoдрoбную метеoинфoрмацию в детальнoм прoфессиoнальнoм фoрмате.

Характеристики температуры и влажнoсти вoздуха измеряются на высoте 2 м в тени вдали oт зданий и деревьев.
Скoрoсть ветра измеряется на высoте 10 м (на урoвне рoста челoвека скoрoсть ветра ниже в 1.5-2 раза). Если метеoстанция нахoдится в гoрoде или в лесу, тo скoрoсть ветра занижена на 2-4 м/с пo сравнению с oткрытым местoм. Скoрoсть ветра над акватoриями крупных рек и oзёр, а также на вершинах хoлмoв на 2-5 м/с выше, чем в oбычных услoвиях.
Атмoсфернoе давление в разных тoчках местнoсти мoжет значительнo oтличаться oт давления на метеoстанции, в зависимoсти oт услoвий рельефа (при пoдъёме на 10 м давление пoнижается примернo на 1 мм рт.ст.).